Retour au catalogue

CZ-3B R/B

ActifHEO
NORAD 43649·ROCKET BODY·🇨🇳 China

Lancé Oct 15, 2018 depuis Xichang Satellite Launch Center

Loading…

Prochains Passages (prochaines 24 heures)

TLE

FraisSource: Space-Track

Époque: Sep 14, 2026, 02:50 UTC

1 43649U 18078C   26257.11871303  .00001200  00000-0  10104-2 0  9997
2 43649  54.8805 182.8128 5529371  28.3939 352.9733  4.64731013133349

Suivez CZ-3B R/B en temps réel avec AllMySat

Download on the App Store